Content
SEND FEEDBACK

Daily
Averages
Monthly
Summary
United States of America

ST. LOUIS - SAINT LOUIS UNIVERSITY, MISSOURI


Home > North America > United States > Missouri
Elevation: 580 feet     Latitude: 38 38N     Longitude: 090 14W

WEATHER
 
SELECT A DAY
Number of Records: 185,881;   Date Range: 1/1/95 - 7/7/14
 
SHARE

PRINT THIS DATA

[ ← Previous Day ]
WEATHER ALMANAC - MARCH 28, 2013
[ Next Day → ]
[ °C ]   °F
Weather ElementAverageHighLow
Temperature46.5 °F57 °F (4:53 pm)36 °F (4:53 am)
Dewpoint31.8 °F37 °F (7:53 pm)25 °F (6:53 am)
Humidity57.2 %70 % (4:53 am)45 % (4:53 pm)
Barometer30.31 in30.38 in (8:53 am)30.25 in (4:53 pm)
Wind Speed8.3 mph12.7 mph (10:53 am)
Weather ElementAverage
Visibility10 mi
Wind DirectionESE (118.3 °)

Weather ElementTotal
Precipitation---
Heating Degree Days18.5 (Base 65)
Averaged from 23 records on March 28, 2013
WEATHER CONDITIONS BREAKOUT
WIND DIRECTION BREAKOUT
WEATHER BY HOUR - MARCH 28, 2013
[ °C ]   °F
Local TimeTemperatureDewpointHumidityBarometerVisibilityWind DirectionWind SpeedGust SpeedPrecipitationEventsConditions
1:53 AM37.9 °F28.0 °F68 %30.35 in10.0 miEast (100°)5.8 mphOvercast
2:53 AM37.0 °F27.0 °F67 %30.34 in10.0 miESE (110°)3.5 mphOvercast
3:53 AM37.0 °F27.0 °F67 %30.34 in10.0 miEast (100°)3.5 mphOvercast
4:53 AM36.0 °F27.0 °F70 %30.35 in10.0 miEast (100°)3.5 mphOvercast
5:53 AM36.0 °F27.0 °F70 %30.36 in10.0 miEast (90°)3.5 mphOvercast
6:53 AM37.0 °F25.0 °F62 %30.37 in10.0 miESE (120°)4.6 mphOvercast
7:53 AM37.0 °F25.0 °F62 %30.37 in10.0 miEast (100°)6.9 mphMostly Cloudy
8:53 AM39.9 °F26.1 °F58 %30.38 in10.0 miESE (120°)6.9 mphClear
9:53 AM44.1 °F28.0 °F53 %30.38 in10.0 miSE (130°)11.5 mphClear
10:53 AM46.9 °F30.0 °F52 %30.38 in10.0 miSE (140°)12.7 mphPartly Cloudy
11:53 AM50.0 °F32.0 °F50 %30.36 in10.0 miSE (130°)12.7 mphPartly Cloudy
12:53 PM52.0 °F34.0 °F50 %30.34 in10.0 miSE (130°)9.2 mphPartly Cloudy
1:53 PM54.0 °F35.1 °F49 %30.32 in10.0 miSSE (150°)6.9 mphScattered Clouds
2:53 PM55.9 °F36.0 °F47 %30.29 in10.0 miESE (120°)11.5 mphScattered Clouds
3:53 PM55.9 °F36.0 °F47 %30.27 in10.0 miSE (130°)11.5 mphMostly Cloudy
4:53 PM57.0 °F36.0 °F45 %30.25 in10.0 miSE (130°)12.7 mphScattered Clouds
5:53 PM55.0 °F35.1 °F47 %30.25 in10.0 miESE (120°)11.5 mphOvercast
6:53 PM53.1 °F35.1 °F50 %30.25 in10.0 miESE (110°)9.2 mphMostly Cloudy
7:53 PM51.1 °F37.0 °F59 %30.25 in10.0 miEast (90°)8.1 mphOvercast
8:53 PM50.0 °F37.0 °F61 %30.26 in10.0 miESE (120°)8.1 mph0.00 inOvercast
9:53 PM48.9 °F36.0 °F61 %30.27 in10.0 miESE (120°)9.2 mphScattered Clouds
10:53 PM50.0 °F36.0 °F59 %30.26 in10.0 miSE (130°)9.2 mphOvercast
11:53 PM48.9 °F36.0 °F61 %30.25 in10.0 miSE (130°)8.1 mphMostly Cloudy
Hourly data recorded from KCPS, located miles away from St. Louis - Saint Louis University, Missouri







STORIES FROM OUR PARTNERS